Location: Gülübeli Geçidi
(36.8411°N, 29.7411°E)
Time: 12:40:06
(UTC+00:00)

Cosmos 1697 Rocket - Pass Details

Date: 15 May 2026
Orbit: 833 x 841 km, 71.0° (Epoch: 11 June)

Event Time Altitude Azimuth Distance (km) Brightness Sun altitude
Rises 17:24:54 0° 336° (NNW) 3,387 6.8 -5.0°
Reaches altitude 10° 17:27:21 10° 335° (NNW) 2,448 6.0 -5.4°
Maximum altitude 17:32:57 78° 251° (WSW) 854 2.9 -6.4°
Drops below altitude 10° 17:38:31 10° 165° (SSE) 2,431 4.7 -7.3°
Sets 17:40:57 0° 164° (SSE) 3,361 5.4 -7.8°
